STARLINK-1642, 46154

Orbit data source: Space-Track

STARLINK-1642, 46154 is a payload satellite owned by SpaceX/Seattle (US) in LEO that was launched on Tue, 18 Aug 2020 UTC via an FALCON 9 launch vehicle from the Air Force Eastern Test Range (AFETR). Payload-class satellites include a variety of spacecraft equipped with specific instruments for various scientific and technological missions. These include communications satellites like Starlink; space stations such as the ISS; scientific satellites like the Hubble; Earth observation satellites from companies like Planet Labs, Umbra, and HawkEye 360; GPS; miniature CubeSats for education and research; and military/defense satellites.

Loading next visibility...
Identifier
46154, 2020-057AP
Orbit
LEO
Country
Flag of USUS
Related business
Manufacturer
SpaceX/Seattle
Mission
Partially operational Commercial Communications
Bus & Motor
STARLINK, Unknown motor
Mass
260 kg wet, ~248 kg dry
Launch date (UTC)
2020-08-18 (5 years ago)
Launch vehicle
FALCON 9
Launch site
Air Force Eastern Test Range (AFETR)
Object type
Payload
Rocket body
Debris
Shape & HBR
Box + 1 Pan, 10.1 m
Radar Cross Section
13.562 m², Large (>1 m²)

Expand to show TLE details & history
Last TLE update: 22 hours ago

TLE from 22 hours ago
0 STARLINK-1642
1 46154U 20057AP  25305.66668981  .00099909  00000-0  20160-2 0  9996
2 46154  53.0504 144.4444 0012367 118.1289 197.4934 15.45664993  5805
Epoch: 2025-11-01T16:00Z
TLE epoch observation values (Epoch: 2025-11-01T16:00:01.999Z)
Latitude
-34.22014°
Longitude
-167.3365°
Altitude
448.252 km
Speed
7.639 km/s
True Right ascension
07h 35m 27s
True Declination
-34° 03' 11"
Sunlit
Object was in daylight at epoch
Visualization orbit readout
Latitude
Unknown
Longitude
Unknown
Altitude
Unknown
Speed
Unknown
Apparent Right ascension
Unknown
Apparent Declination
Unknown
Sunlit
N/A
Visualization observer readout
Local Sidereal Time
09:23:35
Azimuth
Unknown
Elevation
Unknown
Doppler factor
Unknown
Orbital elements
Apogee altitude
438.12 km
Perigee altitude
421.281 km
Semi-major axis
6,807.838 km
Eccentricity
0.00124
Inclination
53.0504°
RAAN
144.4444°
Arg. of periapsis
118.1289°
True anomaly
197.45086°
Mean anomaly
197.4934°
Eccentric anomaly
197.47213°
Mean motion
3.86393 °/min
Orbital period
93.17 mins
BSTAR
0.002016
Loading maneuver chart data...
Computing Atmospheric mass density...

Documentation

Showing up to 5 results
|